Tracking 31032 objects as of 13-Jul-2025
HD Live streaming from Space Station
objects crossing your sky now

CZ-6A DEB

Track CZ-6A DEB now!
10-day predictions


NORAD ID: 56267
Int'l Code: 2022-151ACK
Perigee: 604.6 km
Apogee: 704.3 km
Inclination: 98.7 °
Period: 97.7 minutes
Semi major axis: 7025 km
RCS: Unknown
Launch date: November 11, 2022
Source: People's Republic of China (PRC)
Launch site: Taiyaun Space Center, China (TSC)

Note: This is SATELLITE DEBRIS
Your satellite tracking list
Your tracking list is empty




NASA's NSSDC Master Catalog

Two Line Element Set (TLE):
1 56267U 22151ACK 25194.10267175  .00013224  00000-0  19239-2 0  9995
2 56267  98.6514 246.4955 0070922 225.0237 134.5207 14.74316507128817
Source of the keplerian elements: AFSPC